Location: Владивосток
(43.1151°N, 131.8856°E)
Time: 15:46:07
(UTC+10:00)

CUBEBUG 2 - Pass Details

Date: 09 July 2022
Orbit: 584 x 692 km, 97.7° (Epoch: 17 August)

Event Time Altitude Azimuth Distance (km) Brightness Sun altitude
Rises 03:57:51 0° 16° (NNE) 2,867 ? -14.8°
Reaches altitude 10° 04:00:02 10° 20° (NNE) 1,973 ? -14.6°
Maximum altitude 04:04:17 60° 101° (E) 716 ? -14.1°
Enters shadow 04:08:05 13° 180° (S) 1,802 ? -13.7°
